Total_Precipitation_Accumulation
3.21 3.42 3.46 3.71 3.66 3.62 3.48 3.22 2.81 2.66 2.52 2.26 2.04 2.01 1.97 1.91 1.96 2.03 2.15 2.19 2.23 2.50 2.95 3.25 3.23 3.15 3.21 3.23 3.31 3.30 3.22 3.11 2.98 2.81 2.68 2.57 2.54 2.62 2.66 2.75 2.62 2.51 2.46
3.71 3.78 3.81 4.02 3.86 3.59 3.56 3.35 3.00 2.83 2.66 2.51 2.19 2.01 2.02 2.24 2.16 2.08 2.20 2.26 2.22 2.31 2.68 3.18 3.48 3.64 3.74 3.79 3.67 3.43 3.35 3.30 3.31 3.18 2.98 2.75 2.67 2.59 2.54 2.69 2.78 2.66 2.60
4.26 4.11 4.25 4.38 4.18 3.86 3.82 3.71 3.54 3.19 2.96 2.88 2.69 2.39 2.25 2.34 2.42 2.50 2.50 2.50 2.52 2.50 2.69 3.01 3.34 3.60 3.81 4.02 3.96 3.71 3.54 3.52 3.54 3.51 3.39 3.08 2.90 2.75 2.68 2.64 2.69 2.76 2.61
4.75 4.80 4.63 4.49 4.34 4.11 4.04 4.16 3.89 3.53 3.39 3.39 3.17 2.79 2.47 2.57 2.68 2.62 2.61 2.65 2.82 2.74 2.78 2.80 2.97 3.25 3.54 3.84 4.03 4.06 3.95 3.90 3.79 3.65 3.57 3.44 3.29 3.10 2.87 2.85 2.76 2.73 2.67
4.87 5.03 4.99 4.88 4.68 4.52 4.42 4.10 4.01 3.84 3.76 3.65 3.19 2.96 2.63 2.52 2.63 2.58 2.61 2.66 2.88 2.98 2.97 2.74 2.87 3.21 3.43 3.71 4.02 4.30 4.39 4.34 4.14 4.02 3.93 3.83 3.69 3.45 3.18 2.99 2.89 2.87 2.86
5.25 5.29 5.15 5.05 4.98 4.91 4.77 4.53 4.42 4.28 3.96 3.78 3.31 3.05 2.78 2.54 2.49 2.49 2.46 2.54 2.59 2.63 2.72 2.75 2.81 2.78 3.06 3.41 3.80 4.20 4.54 4.80 4.58 4.25 4.09 4.10 4.00 3.74 3.55 3.35 3.19 3.11 3.10
5.69 5.63 5.50 5.37 5.15 4.98 4.86 4.71 4.53 4.33 3.96 3.81 3.65 3.33 2.85 2.48 2.43 2.38 2.29 2.37 2.38 2.34 2.46 2.56 2.77 2.76 2.68 3.00 3.24 3.65 4.09 4.64 4.87 4.70 4.46 4.33 4.23 4.02 3.77 3.53 3.42 3.39 3.29
6.30 6.06 6.10 5.80 5.42 5.18 4.89 4.64 4.43 4.13 3.76 3.72 3.74 3.83 3.36 2.92 2.31 1.96 1.99 2.03 2.02 2.04 2.15 2.27 2.43 2.54 2.49 2.63 2.73 3.01 3.34 3.70 4.19 4.49 4.52 4.42 4.27 4.08 3.90 3.73 3.55 3.52 3.58
6.34 6.00 5.81 5.72 5.42 4.90 4.64 4.46 4.21 4.01 3.79 3.65 3.55 3.79 3.57 3.17 2.63 2.23 1.94 1.80 1.83 1.96 2.02 2.14 2.19 2.22 2.19 2.25 2.28 2.46 2.67 2.81 3.29 3.83 4.13 4.13 4.06 3.92 3.84 3.85 3.82 3.69 3.63
5.93 5.60 5.40 5.13 4.85 4.51 4.32 3.99 3.88 3.88 3.83 3.61 3.49 3.26 3.01 2.85 2.88 2.62 2.25 2.00 1.92 1.93 1.89 1.85 1.90 2.00 2.06 2.09 2.15 2.16 2.24 2.36 2.68 3.04 3.41 3.58 3.61 3.59 3.55 3.54 3.57 3.59 3.66
5.32 4.88 4.64 4.38 4.09 3.86 3.65 3.39 3.35 3.43 3.47 3.40 3.34 3.24 3.09 2.96 2.79 2.65 2.52 2.42 2.28 2.09 1.96 1.88 1.85 1.85 1.86 1.92 1.97 2.01 2.14 2.10 2.19 2.38 2.66 2.90 3.04 3.18 3.27 3.33 3.36 3.46 3.61
4.63 4.28 3.96 3.69 3.36 3.14 2.97 2.87 2.78 2.77 2.88 2.90 2.96 2.95 2.96 3.03 2.94 2.90 2.70 2.55 2.48 2.28 2.10 1.96 1.88 1.85 1.79 1.87 1.94 2.15 2.04 2.06 2.13 2.10 2.19 2.35 2.45 2.66 2.85 3.08 3.25 3.44 3.66
3.59 3.35 3.10 2.92 2.67 2.56 2.53 2.54 2.52 2.49 2.52 2.55 2.62 2.69 2.71 2.73 2.75 2.91 3.05 2.83 2.56 2.26 2.15 1.99 1.85 1.83 1.81 1.90 1.92 1.98 1.83 1.78 1.81 1.81 1.92 2.05 2.13 2.29 2.44 2.58 2.76 2.95 3.14
2.57 2.47 2.43 2.24 2.13 2.12 2.08 2.18 2.20 2.22 2.28 2.27 2.22 2.41 2.51 2.43 2.41 2.53 2.78 2.86 2.73 2.44 2.16 1.97 1.80 1.75 1.78 1.78 1.89 1.87 1.64 1.71 1.64 1.60 1.60 1.68 1.78 1.89 2.02 2.12 2.28 2.44 2.51
2.17 2.06 2.04 2.02 1.97 1.99 1.95 1.97 1.97 1.89 1.99 2.05 2.01 2.13 2.23 2.17 2.11 2.12 2.27 2.47 2.67 2.62 2.19 1.83 1.75 1.69 1.68 1.68 1.80 1.53 1.50 1.61 1.55 1.48 1.44 1.45 1.55 1.62 1.67 1.67 1.75 1.90 2.07
2.07 1.96 1.87 1.84 1.82 1.76 1.73 1.84 1.82 1.77 1.79 1.80 1.81 1.90 1.94 1.91 1.95 1.91 1.94 2.04 2.25 2.44 2.27 1.72 1.57 1.56 1.65 1.51 1.59 1.38 1.41 1.45 1.34 1.28 1.22 1.17 1.17 1.29 1.34 1.31 1.37 1.48 1.66
1.80 1.76 1.57 1.54 1.53 1.49 1.49 1.59 1.61 1.64 1.65 1.63 1.57 1.56 1.63 1.70 1.83 1.74 1.75 1.82 1.96 2.15 2.21 1.81 1.59 1.57 1.67 1.68 1.65 1.55 1.40 1.28 1.22 1.24 1.13 1.08 1.04 1.07 1.16 1.15 1.16 1.21 1.37
1.57 1.55 1.47 1.36 1.28 1.32 1.44 1.46 1.39 1.40 1.46 1.46 1.44 1.46 1.45 1.54 1.67 1.69 1.70 1.69 1.79 1.95 2.04 1.95 1.74 1.62 1.61 1.62 1.63 1.62 1.37 1.16 1.13 1.23 1.15 1.06 1.05 1.02 1.05 1.09 1.08 1.08 1.06
1.41 1.38 1.37 1.36 1.33 1.27 1.31 1.31 1.28 1.32 1.36 1.40 1.41 1.39 1.35 1.47 1.52 1.53 1.56 1.55 1.61 1.65 1.78 1.74 1.55 1.50 1.46 1.49 1.63 1.60 1.51 1.46 1.11 1.06 1.08 1.00 1.02 1.00 0.96 0.98 0.99 0.99 0.94
1.30 1.21 1.20 1.25 1.26 1.22 1.19 1.19 1.21 1.32 1.43 1.36 1.28 1.28 1.31 1.30 1.31 1.39 1.41 1.50 1.60 1.72 1.75 1.70 1.52 1.40 1.43 1.47 1.71 1.77 1.69 1.53 1.29 0.98 1.01 0.98 0.99 0.95 0.92 0.95 0.89 0.90 0.93
1.27 1.25 1.21 1.19 1.16 1.14 1.08 1.10 1.13 1.17 1.34 1.34 1.29 1.23 1.18 1.17 1.17 1.21 1.17 1.29 1.48 1.65 1.70 1.73 1.62 1.51 1.50 1.68 1.69 1.59 1.58 1.47 1.31 1.08 1.09 1.00 1.02 1.18 1.39 1.44 1.21 0.96 0.93
1.23 1.26 1.25 1.21 1.10 0.97 1.06 1.08 1.03 1.11 1.22 1.28 1.29 1.22 1.11 1.04 0.98 0.99 0.96 1.03 1.23 1.44 1.62 1.76 1.70 1.62 1.55 1.67 1.78 1.69 1.72 1.75 1.59 1.24 1.27 1.17 1.17 1.54 1.93 2.11 1.69 1.12 0.98
1.18 1.24 1.26 1.26 1.16 1.07 1.10 1.05 1.05 1.07 1.16 1.27 1.30 1.27 1.06 0.90 1.01 0.98 0.99 0.97 1.00 1.10 1.37 1.67 1.80 1.67 1.63 1.74 1.92 1.89 1.89 1.88 1.76 1.46 1.54 1.50 1.42 1.70 1.71 1.80 1.75 1.30 1.17
1.20 1.28 1.33 1.29 1.20 1.10 1.08 1.04 1.03 1.02 1.05 1.14 1.18 1.20 1.28 1.25 1.12 1.06 1.00 1.02 1.07 1.12 1.18 1.27 1.51 1.56 1.46 1.55 1.76 1.81 1.85 1.80 1.69 1.62 1.70 1.76 1.58 1.67 1.54 1.85 2.02 1.82 1.59
1.23 1.26 1.26 1.28 1.26 1.17 1.07 1.01 1.06 1.01 0.98 0.97 0.97 1.03 1.13 1.19 1.12 1.03 1.02 1.11 1.18 1.21 1.07 1.16 1.23 1.37 1.45 1.41 1.44 1.58 1.82 1.98 1.92 1.68 1.63 1.73 1.69 1.74 1.83 2.10 2.10 2.08 1.94
1.22 1.20 1.22 1.25 1.25 1.20 1.01 0.88 0.94 0.92 0.95 0.95 1.01 1.05 1.02 0.97 1.02 0.97 0.99 1.19 1.28 1.25 1.32 1.47 1.61 1.69 1.63 1.55 1.43 1.50 1.82 2.05 2.05 1.93 1.65 1.80 1.93 2.11 2.38 2.39 2.26 2.06 2.01